Location: Zagreb
(45.8000°N, 16.0000°E)
Time: 12:53:03
(UTC+02:00)

ISS - Pass Details

Date: 03 October 2021
Orbit: 417 x 423 km, 51.6° (Epoch: 15 October)

Event Time Altitude Azimuth Distance (km) Brightness Sun altitude
Rises 20:16:16 0° 294° (WNW) 2,366 1.6 -18.9°
Reaches altitude 10° 20:18:27 10° 286° (WNW) 1,501 0.3 -19.2°
Maximum altitude 20:21:35 37° 218° (SW) 668 -2.6 -19.8°
Enters shadow 20:22:11 34° 192° (SSW) 714 -2.7 -19.9°
